Date String (YYYY-MM-DD hh:mm:ss) UTC,Instrument flags,Ambient pressure (hPa),Sample flow (lpm),Bypass flow (lpm),Sample temperature (°C),Ambient temperature (°C),ASC tube jacket temperature (°C),LED temperature (°C),Box temperature (°C),Sample RH (%),Span deviation,Mass concentration (μg/m³),Mass concentration (μg/m³),Mass concentration (μg/m³)
DateTimeUTC,F1_M11,P_M11,Q1_M11,Q2_M11,T1_M11,T2_M11,T3_M11,T4_M11,T5_M11,U1_M11,ZSPAN_M11,X0_M11,X2_M11,X1_M11
2022-11-10 23:00:00,,0822.7,4.99,0.00,23.4,22.1,00.0,32.2,25.3,07.5,0000.0,0001.95,0000.27,0000.22
2022-11-10 23:01:00,,0822.7,5.01,0.00,23.4,22.1,00.0,32.2,25.3,07.6,0000.0,0001.98,0000.28,0000.22
2022-11-10 23:02:00,,0822.7,5.00,0.00,23.4,22.1,00.0,32.2,25.3,07.6,0000.0,0002.01,0000.29,0000.22
2022-11-10 23:03:00,,0822.8,5.00,0.00,23.4,22.1,00.0,32.2,25.3,07.6,0000.0,0002.61,0000.29,0000.23
2022-11-10 23:04:00,,0822.9,4.99,0.00,23.4,22.1,00.0,32.2,25.3,07.6,0000.0,0003.09,0000.29,0000.23
2022-11-10 23:05:00,,0822.9,5.00,0.00,23.4,22.1,00.0,32.2,25.3,07.6,0000.0,0003.16,0000.29,0000.23
2022-11-10 23:06:00,,0822.8,5.01,0.00,23.4,22.1,00.0,32.2,25.3,07.9,0000.0,0002.55,0000.29,0000.23
2022-11-10 23:07:00,,0822.9,5.01,0.00,23.4,22.0,00.0,32.2,25.3,08.1,0000.0,0001.81,0000.30,0000.23
2022-11-10 23:08:00,,0822.9,4.99,0.00,23.4,22.0,00.0,32.2,25.3,08.1,0000.0,0001.81,0000.30,0000.24
2022-11-10 23:09:00,,0823.0,4.99,0.00,23.4,22.0,00.0,32.2,25.3,08.2,0000.0,0001.98,0000.32,0000.23
2022-11-10 23:10:00,,0822.9,5.00,0.00,23.4,22.0,00.0,32.2,25.3,08.2,0000.0,0001.99,0000.32,0000.24
2022-11-10 23:11:00,,0823.0,5.02,0.00,23.4,21.9,00.0,32.2,25.2,08.3,0000.0,0002.07,0000.35,0000.24
2022-11-10 23:12:00,,0823.0,5.00,0.00,23.4,21.9,00.0,32.2,25.2,08.3,0000.0,0002.45,0000.35,0000.23
2022-11-10 23:13:00,,0823.0,4.99,0.00,23.4,21.8,00.0,32.2,25.2,08.4,0000.0,0003.46,0000.35,0000.23
2022-11-10 23:14:00,,0823.1,5.00,0.00,23.4,21.8,00.0,32.2,25.2,08.4,0000.0,0002.99,0000.34,0000.22
2022-11-10 23:15:00,,0823.2,5.00,0.00,23.4,21.8,00.0,32.2,25.2,08.4,0000.0,0003.27,0000.33,0000.21
2022-11-10 23:16:00,,0823.2,4.99,0.00,23.4,21.8,00.0,32.2,25.2,08.4,0000.0,0004.16,0000.33,0000.21
2022-11-10 23:17:00,,0823.3,5.01,0.00,23.4,21.9,00.0,32.2,25.2,08.4,0000.0,0004.58,0000.34,0000.22
2022-11-10 23:18:00,,0823.4,5.00,0.00,23.4,21.9,00.0,32.2,25.2,08.4,0000.0,0004.57,0000.34,0000.22
2022-11-10 23:19:00,,0823.6,4.99,0.00,23.4,22.0,00.0,32.2,25.2,08.3,0000.0,0004.58,0000.35,0000.21
2022-11-10 23:20:00,,0823.7,5.01,0.00,23.4,22.0,00.0,32.2,25.2,08.4,0000.0,0004.50,0000.34,0000.21
2022-11-10 23:21:00,,0823.7,5.01,0.00,23.4,22.0,00.0,32.2,25.3,10.0,0000.0,0008.69,0000.93,0000.45
2022-11-10 23:22:00,,0823.7,4.99,0.00,23.4,22.1,00.0,32.2,25.3,10.8,0000.0,0014.09,0001.78,0000.94
2022-11-10 23:23:00,,0823.7,4.99,0.00,23.4,22.1,00.0,32.2,25.3,11.2,0000.0,0017.79,0002.90,0001.48
2022-11-10 23:24:00,,0823.7,5.01,0.00,23.4,22.1,00.0,32.2,25.3,11.3,0000.0,0020.21,0003.62,0002.08
2022-11-10 23:25:00,,0823.7,5.00,0.00,23.4,22.1,00.0,32.2,25.3,11.4,0000.0,0022.78,0004.27,0002.72
2022-11-10 23:26:00,,0823.7,4.99,0.00,23.4,22.1,00.0,32.2,25.3,11.5,0000.0,0025.51,0004.89,0003.25
2022-11-10 23:27:00,,0823.8,5.00,0.00,23.5,22.1,00.0,32.2,25.4,11.5,0000.0,0027.73,0005.47,0003.61
2022-11-10 23:28:00,,0823.8,4.99,0.00,23.5,22.1,00.0,32.2,25.4,11.5,-000.6,0028.95,0006.00,0003.90
2022-11-10 23:29:00,,0823.8,5.00,0.00,23.5,22.1,00.0,32.2,25.4,11.5,-000.4,0031.24,0006.61,0004.27
2022-11-10 23:30:00,,0823.8,5.00,0.00,23.5,22.1,00.0,32.2,25.4,11.5,0000.1,0033.76,0007.22,0004.64
2022-11-10 23:31:00,,0823.8,5.00,0.00,23.5,22.1,00.0,32.2,25.4,11.5,-000.4,0036.13,0007.80,0004.99
2022-11-10 23:32:00,,0823.9,5.00,0.00,23.5,22.2,00.0,32.2,25.4,11.5,-000.5,0035.48,0008.03,0005.24
2022-11-10 23:33:00,,0824.0,5.00,0.00,23.5,22.1,00.0,32.2,25.4,11.5,0000.1,0032.93,0008.12,0005.34
2022-11-10 23:34:00,,0824.0,5.00,0.00,23.5,22.1,00.0,32.2,25.4,11.5,0000.1,0033.42,0008.03,0005.43
2022-11-10 23:35:00,,0824.0,5.01,0.00,23.5,22.1,00.0,32.2,25.4,11.4,-000.6,0032.63,0007.97,0005.50
2022-11-10 23:36:00,,0824.0,5.01,0.00,23.5,22.1,00.0,32.2,25.4,11.4,-000.8,0033.21,0007.90,0005.53
2022-11-10 23:37:00,,0824.0,5.00,0.00,23.5,22.1,00.0,32.2,25.4,11.4,-000.9,0032.76,0007.81,0005.56
2022-11-10 23:38:00,,0824.0,4.99,0.00,23.5,22.0,00.0,32.2,25.4,11.5,-000.6,0032.37,0007.78,0005.58
2022-11-10 23:39:00,,0824.0,5.00,0.00,23.5,21.9,00.0,32.2,25.3,11.5,-001.1,0032.77,0007.76,0005.61
2022-11-10 23:40:00,,0824.0,5.01,0.00,23.4,21.9,00.0,32.2,25.3,11.5,-001.7,0032.42,0007.71,0005.62
2022-11-10 23:41:00,,0823.9,5.01,0.00,23.4,21.8,00.0,32.2,25.3,11.5,-001.9,0031.57,0007.60,0005.63
2022-11-10 23:42:00,,0824.0,5.00,0.00,23.4,21.8,00.0,32.2,25.2,11.5,-001.6,0032.16,0007.57,0005.65
2022-11-10 23:43:00,,0824.1,4.99,0.00,23.4,21.8,00.0,32.2,25.2,11.5,0000.1,0031.67,0007.61,0005.67
2022-11-10 23:44:00,,0824.1,5.00,0.00,23.4,21.7,00.0,32.2,25.2,11.5,-000.9,0031.13,0007.68,0005.69
2022-11-10 23:45:00,,0824.1,5.00,0.00,23.3,21.7,00.0,32.2,25.2,11.5,-001.3,0029.78,0007.69,0005.70
2022-11-10 23:46:00,,0824.1,4.99,0.00,23.3,21.7,00.0,32.2,25.2,11.5,-000.6,0028.26,0007.62,0005.69
2022-11-10 23:47:00,,0824.1,5.00,0.00,23.3,21.7,00.0,32.2,25.2,11.5,-000.3,0026.89,0007.57,0005.70
2022-11-10 23:48:00,,0824.1,5.01,0.00,23.3,21.7,00.0,32.2,25.1,11.5,0000.1,0026.33,0007.57,0005.72
2022-11-10 23:49:00,,0824.0,4.99,0.00,23.3,21.7,00.0,32.2,25.1,11.5,-000.2,0025.60,0007.52,0005.73
2022-11-10 23:50:00,,0824.1,5.01,0.00,23.3,21.7,00.0,32.1,25.1,11.5,-000.7,0024.96,0007.43,0005.73
2022-11-10 23:51:00,,0824.2,5.00,0.00,23.3,21.6,00.0,32.1,25.1,11.5,-000.9,0025.39,0007.39,0005.73
2022-11-10 23:52:00,,0824.2,5.01,0.00,23.3,21.6,00.0,32.1,25.1,11.5,-001.4,0024.89,0007.42,0005.74
2022-11-10 23:53:00,,0824.3,5.00,0.00,23.2,21.6,00.0,32.1,25.1,11.6,-001.3,0023.60,0007.43,0005.76
2022-11-10 23:54:00,,0824.3,4.99,0.00,23.2,21.5,00.0,32.1,25.1,11.6,-001.4,0023.90,0007.42,0005.78
2022-11-10 23:55:00,,0824.4,5.01,0.00,23.2,21.6,00.0,32.1,25.0,11.6,-001.0,0023.83,0007.29,0005.77
2022-11-10 23:56:00,,0824.3,5.01,0.00,23.2,21.6,00.0,32.1,25.0,11.6,-000.4,0022.40,0007.28,0005.77
2022-11-10 23:57:00,,0824.4,4.99,0.00,23.2,21.6,00.0,32.0,25.1,11.6,-001.8,0022.39,0007.28,0005.78
2022-11-10 23:58:00,,0824.4,5.01,0.00,23.2,21.7,00.0,32.0,25.1,11.6,-001.8,0022.15,0007.28,0005.79
2022-11-10 23:59:00,,0824.4,5.01,0.00,23.2,21.7,00.0,32.0,25.1,11.6,-002.0,0021.63,0007.23,0005.78
